Regional Weather Roundup
Issued by NWS

Home | Current Version | Previous Version | Graphics & Text | Print | Product List | Glossary On
Versions: 1 2 3 4 5 6 7 8 9 10 11 12 13 14 15 16 17 18 19 20 21 22 23 24 25 26 27 28 29 30 31 32 33 34 35 36 37 38 39 40 41 42 43 44 45 46 47 48 49 50
000
ASUS43 KMPX 221201
RWRMN
WEATHER ROUNDUP FOR MINNESOTA
NATIONAL WEATHER SERVICE TWIN CITIES/CHANHASSEN MN
600 AM CST MON DEC 22 2014


NOTE: "FAIR" INDICATES FEW OR NO CLOUDS BELOW 12,000 FEET WITH NO
SIGNIFICANT WEATHER AND/OR OBSTRUCTIONS TO VISIBILITY. N/A MEANS
CURRENT SKY AND/OR WEATHER CONDITIONS ARE NOT AVAILABLE.

MNZ060>063-068>070-221300-
   Twin Cities Metro

CITY           SKY/WX    TMP DP  RH WIND       PRES   REMARKS
TWIN CITIES    CLOUDY    37  35  92 SE12      29.67S FOG
6HR MIN TEMP:  37; 6HR MAX TEMP:  38; 6HR PCP:  0.01;

ST PAUL        LGT RAIN  37  35  92 SE15      29.69S FOG
CRYSTAL        CLOUDY    38  36  92 SE14G23   29.65S FOG
BLAINE         CLOUDY    39  39 100 SE15      29.66S FOG
LAKEVILLE      CLOUDY    36  36 100 SE10G17   29.66F
EDEN PRAIRIE   CLOUDY    38  36  92 SE13      29.64F FOG
6HR MIN TEMP:  38; 6HR MAX TEMP:  39;

SOUTH ST PAUL  CLOUDY    37  36  94 SE8       29.68S FOG
LAKE ELMO      LGT RAIN  36  36 100 SE9G16    29.70S
$$
MNZ001>005-007-008-013>017-022>024-027-028-221300-
   Northwest Minnesota

CITY           SKY/WX    TMP DP  RH WIND       PRES   REMARKS
BEMIDJI        DRIZZLE   33  33  99 E7        29.56S WCI  27
HALLOCK        CLOUDY    34  34 100 E9        29.56S FOG     WCI  26
ROSEAU         CLOUDY    34  30  86 E9        29.59S FOG     WCI  26
WARROAD        LGT SNOW  34  28  80 E9        29.61S WCI  26
THIEF RVR FALL CLOUDY    34  34 100 E10       29.55S WCI  26
CROOKSTON      CLOUDY    36  34  93 E7        29.54S FOG
FOSSTON        CLOUDY    34  34 100 E7        29.54S WCI  28
DETROIT LAKES  CLOUDY    36  36 100 SE12      29.52S FOG
MOORHEAD       CLOUDY    37  37 100 SE10      29.51R FOG
PARK RAPIDS    CLOUDY    36  35  96 SE12      29.54F FOG
MAHNOMEN       CLOUDY    35  34  95 SE10      29.52S WCI  27
$$
MNZ006-009>011-018-025>026-221300-
   North Central Minnesota

CITY           SKY/WX    TMP DP  RH WIND       PRES   REMARKS
BAUDETTE       CLOUDY    33  31  92 E9        29.61S WCI  25
FLAG ISLAND    CLOUDY    32  30  93 E7        29.62S FOG     WCI  26
INTL FALLS     LGT SNOW  33  31  92 E7        29.64F FOG     WCI  27
6HR MIN TEMP:  33; 6HR MAX TEMP:  33; 6HR PCP:  0.06;

WASKISH        CLOUDY    34  34 100 CALM      29.60S
BIG FORK       CLOUDY    34  34 100 SE5       29.63S FOG     WCI  30
LONGVILLE      CLOUDY    36  34  93 SE7       29.59S FOG
GRAND RAPIDS   CLOUDY    34  32  93 SE7       29.62S WCI  28
CRANE LAKE     LGT SNOW  32  30  93 CALM      29.69S
ORR            CLOUDY    32  30  93 CALM      29.64R FOG
COOK           CLOUDY    34  34 100 SE5       29.67R WCI  30
WALKER         CLOUDY    33  33  99 E3        29.57S FOG
$$
MNZ012-019>021-037-221300-
   Northeast Minnesota

CITY           SKY/WX    TMP DP  RH WIND       PRES   REMARKS
DULUTH         LGT SNOW  33  31  92 SE9       29.68S FOG     WCI  25
6HR MIN TEMP:  33; 6HR MAX TEMP:  35; 6HR PCP:  0.08;

ELY            FLURRIES  34  32  93 SE6       29.69R WCI  29
HIBBING        CLOUDY    34  32  92 SE9       29.66S FOG     WCI  27
EVELETH        CLOUDY    32  32 100 SE6       29.68S FOG     WCI  26
DULUTH HARBOR  MIX PCPN  34  32  93 CALM      29.73S
TWO HARBORS    CLOUDY    36  30  80 E3        29.71R
SILVER BAY     LGT SNOW  34  32  93 CALM      29.72S
GRAND MARAIS     N/A     37  34  89 S15       29.79R
G MARAIS ARPRT MIX PCPN  30  28  93 S7        29.74S VSB 1/4 WCI  23
$$
MNZ029>031-032-039>041-046>048-054>057-064-221300-
   West Central Minnesota

CITY           SKY/WX    TMP DP  RH WIND       PRES   REMARKS
FERGUS FALLS   CLOUDY    36  36 100 SE16      29.53S FOG
WHEATON        DRIZZLE   34  32  93 SE12      29.50S WCI  25
MORRIS         FOG       36  36 100 SE16      29.50S VSB 1/2
ALEXANDRIA     CLOUDY    36  35  96 SE15      29.54S FOG
ELBOW LAKE     DRIZZLE   35  35 100 SE16      29.50S WCI  25
WADENA         LGT RAIN  34  34 100 SE12      29.54S WCI  25
GLENWOOD       DRZL/FOG  36  36 100 SE16      29.54F VSB 3/4
APPLETON       LGT RAIN  39  37  93 SE14      29.50F
BENSON         MIX PCPN  37  36  93 S12       29.53S
ORTONVILLE     DRIZZLE   36  34  93 SE12      29.48F
MADISON        RAIN      39  37  93 SE10      29.50S
WILLMAR        LGT RAIN  37  36  93 SE13      29.56F
$$
MNZ033>034-036-042>043-049>051-058-059-221300-
   Central Minnesota

CITY           SKY/WX    TMP DP  RH WIND       PRES   REMARKS
ST CLOUD       CLOUDY    39  36  89 SE15      29.61S FOG
6HR MIN TEMP:  38; 6HR MAX TEMP:  39;

SAUK CENTRE    DRIZZLE   36  36 100 SE12      29.56S
PAYNESVILLE    LGT RAIN  35  35 100 E10       29.58S WCI  27
AITKIN         CLOUDY    37  34  87 SE9       29.61R
PINE RIVER     DRIZZLE   36  36 100 SE8       29.62S
BRAINERD       CLOUDY    36  35  96 SE9       29.60S FOG
STAPLES        CLOUDY    36  36 100 SE8       29.56S FOG
LONG PRAIRIE   MIX PCPN  34  34 100 SE12      29.56S WCI  25
LITTLE FALLS   CLOUDY    36  34  93 SE8G17    29.60R FOG
LITCHFIELD     CLOUDY    37  37 100 SE12G18   29.59F FOG
BUFFALO        LGT RAIN  37  36  93 SE9       29.63F
MAPLE LAKE     CLOUDY    38  38  98 SE9       29.62F FOG
$$
MNZ037-044-045-052-053-221300-
   East Central Minnesota

CITY           SKY/WX    TMP DP  RH WIND       PRES   REMARKS
PRINCETON      CLOUDY    37  37 100 SE9G16    29.64S FOG
MORA           CLOUDY    34  34 100 SE9       29.67S WCI  26
CAMBRIDGE      CLOUDY    37  32  81 SE8       29.64S HAZE
RUSH CITY      CLOUDY    36  35  96 SE10      29.68S
MOOSE LAKE     DRIZZLE   34  32  93 SE5       29.66S WCI  30
HINCKLEY       CLOUDY    36  36 100 CALM      29.67S FOG
CLOQUET        FLURRIES  34  32  93 SE5       29.68S WCI  30
MCGREGOR       CLOUDY    34  34 100 SE8       29.64S WCI  27
$$
MNZ071>073-080-081-089-090-097-098-221300-
   Southwest Minnesota

CITY           SKY/WX    TMP DP  RH WIND       PRES   REMARKS
MONTEVIDEO     LGT RAIN  37  37 100 S10G16    29.53S
GRANITE FALLS  LGT RAIN  38  38  97 SE12      29.54S
CANBY          LGT RAIN  37  36  96 SE8       29.50S
MARSHALL       CLOUDY    37  36  93 SE12      29.52R
REDWOOD FALLS  LGT RAIN  39  38  96 SE16      29.55S
OLIVIA         CLOUDY    37  36  93 SE13      29.55F FOG
PIPESTONE      DRIZZLE   37  37 100 S10       29.47F
WINDOM         DRIZZLE   39  39 100 SE12G20   29.54F
WORTHINGTON    CLOUDY    39 -11  11 S10G18    29.53S
JACKSON        DRIZZLE   37  37 100 S15G21    29.56S
TRACY          DRIZZLE   39  38  96 S10       29.52S
SLAYTON        DRIZZLE   37  37 100 SE10      29.51F
$$
MNZ065>067-074>077-082>085-091>093-221300-
   South Central Minnesota

CITY           SKY/WX    TMP DP  RH WIND       PRES   REMARKS
MANKATO        CLOUDY    37  34  87 S16G22    29.62S
NEW ULM        DRIZZLE   39  39 100 SE15G21   29.59S
ST JAMES       DRIZZLE   39  37  93 SE16      29.59S
FAIRMONT       CLOUDY    37  36  93 SE18      29.59S
GLENCOE        CLOUDY    39  38  99 SE12      29.61S FOG
FARIBAULT      CLOUDY    37  36  93 SE13G18   29.66S FOG
OWATONNA       CLOUDY    37  36  93 SE14      29.66S FOG
WASECA         CLOUDY    36  36 100 SE16      29.65S FOG
ALBERT LEA     FOG       37  37 100 SE14      29.64F VSB 1
$$
MNZ078>079-086>088-094>096-221300-
   Southeast Minnesota

CITY           SKY/WX    TMP DP  RH WIND       PRES   REMARKS
ROCHESTER      LGT RAIN  34  33  96 S17G24    29.71S FOG     WCI  23
6HR MIN TEMP:  34; 6HR MAX TEMP:  35; 6HR PCP: TRACE;

RED WING       CLOUDY    37  36  93 SE12G18   29.71S FOG
STANTON        DRIZZLE   38  35  90 SE13G20   29.66S
DODGE CENTER   LGT RAIN  36  36 100 SE15      29.67F VSB 3/4
WINONA         CLOUDY    36  34  93 SE12      29.77R FOG
AUSTIN         LGT RAIN  36  36 100 SE9G17    29.67F
PRESTON        CLOUDY    33  32  96 SE10G17   29.73R FOG     WCI  25
$$
ABBREVIATIONS USED IN REMARKS
   TC - TEMPERATURES IN CELSIUS
  WCI - WIND CHILL INDEX
   HX - HEAT INDEX
  VSB - VISIBILITY
$$


USA.gov is the U.S. government's official web portal to all federal, state and local government web resources and services.